• In Hungary
  • List of Countries
  • For 7 days
  • Water Temperature
  • Satellite Maps
  • Weather Map
  • News
  • Weather Widgets
  • user-avatar
    Login

    Hourly Weather Karachi

    Today, 21 November, Tuesday

    Time Temperature Precipitation Wind Pressure Humidity
    00:00 +22°C° 0 mm 3 mps 760 mmHg 17%
    01:00 +22°C° 0 mm 3 mps 760 mmHg 17%
    02:00 +22°C° 0 mm 3 mps 760 mmHg 17%
    03:00 +21°C° 0 mm 3 mps 760 mmHg 17%
    04:00 +21°C° 0 mm 3 mps 760 mmHg 18%
    05:00 +21°C° 0 mm 3 mps 760 mmHg 17%
    06:00 +21°C° 0 mm 3 mps 760 mmHg 17%
    07:00 +22°C° 0 mm 3 mps 761 mmHg 17%
    08:00 +24°C° 0 mm 3 mps 761 mmHg 15%
    09:00 +26°C° 0 mm 4 mps 761 mmHg 14%
    10:00 +28°C° 0 mm 4 mps 761 mmHg 12%
    11:00 +28°C° 0 mm 3 mps 760 mmHg 11%
    12:00 +29°C° 0 mm 3 mps 760 mmHg 10%
    13:00 +30°C° 0 mm 2 mps 759 mmHg 9%
    14:00 +30°C° 0 mm 2 mps 759 mmHg 10%
    15:00 +29°C° 0 mm 2 mps 759 mmHg 10%
    16:00 +29°C° 0 mm 2 mps 758 mmHg 10%
    17:00 +28°C° 0 mm 2 mps 759 mmHg 12%
    18:00 +27°C° 0 mm 3 mps 759 mmHg 14%
    19:00 +26°C° 0 mm 3 mps 759 mmHg 17%
    20:00 +25°C° 0 mm 3 mps 759 mmHg 17%
    21:00 +25°C° 0 mm 3 mps 759 mmHg 17%
    22:00 +24°C° 0 mm 3 mps 759 mmHg 17%
    23:00 +24°C° 0 mm 3 mps 759 mmHg 16%

    Tomorrow, 22 November, Wednesday

    Time Temperature Precipitation Wind Pressure Humidity
    00:00 +22°C° 0 mm 3 mps 759 mmHg 16%
    01:00 +22°C° 0 mm 3 mps 758 mmHg 16%
    02:00 +22°C° 0 mm 3 mps 758 mmHg 16%
    03:00 +21°C° 0 mm 3 mps 758 mmHg 16%
    04:00 +21°C° 0 mm 4 mps 758 mmHg 16%
    05:00 +21°C° 0 mm 4 mps 758 mmHg 16%
    06:00 +22°C° 0 mm 4 mps 759 mmHg 15%
    07:00 +22°C° 0 mm 4 mps 759 mmHg 15%
    08:00 +25°C° 0 mm 4 mps 760 mmHg 13%
    09:00 +27°C° 0 mm 5 mps 760 mmHg 12%
    10:00 +29°C° 0 mm 5 mps 760 mmHg 10%
    11:00 +29°C° 0 mm 5 mps 759 mmHg 9%
    12:00 +30°C° 0 mm 4 mps 759 mmHg 9%
    13:00 +32°C° 0 mm 4 mps 758 mmHg 8%
    14:00 +30°C° 0 mm 3 mps 758 mmHg 8%
    15:00 +30°C° 0 mm 3 mps 757 mmHg 8%
    16:00 +30°C° 0 mm 3 mps 757 mmHg 8%
    17:00 +29°C° 0 mm 3 mps 758 mmHg 9%
    18:00 +28°C° 0 mm 3 mps 758 mmHg 10%
    19:00 +27°C° 0 mm 4 mps 758 mmHg 11%
    20:00 +26°C° 0 mm 4 mps 758 mmHg 12%
    21:00 +25°C° 0 mm 4 mps 758 mmHg 12%
    22:00 +25°C° 0 mm 4 mps 758 mmHg 12%
    23:00 +25°C° 0 mm 4 mps 758 mmHg 12%

    Day after tomorrow, 23 November, Thursday

    Time Temperature Precipitation Wind Pressure Humidity
    00:00 +23°C° 0 mm 4 mps 758 mmHg 13%
    01:00 +23°C° 0 mm 4 mps 757 mmHg 13%
    02:00 +22°C° 0 mm 4 mps 757 mmHg 13%
    03:00 +22°C° 0 mm 4 mps 757 mmHg 13%
    04:00 +22°C° 0 mm 4 mps 757 mmHg 14%
    05:00 +22°C° 0 mm 4 mps 757 mmHg 13%
    06:00 +22°C° 0 mm 4 mps 758 mmHg 13%
    07:00 +22°C° 0 mm 4 mps 758 mmHg 13%
    08:00 +25°C° 0 mm 4 mps 758 mmHg 12%
    09:00 +27°C° 0 mm 4 mps 759 mmHg 10%
    10:00 +29°C° 0 mm 4 mps 759 mmHg 8%
    11:00 +30°C° 0 mm 3 mps 758 mmHg 8%
    12:00 +31°C° 0 mm 2 mps 758 mmHg 8%
    13:00 +31°C° 0 mm 1 mps 757 mmHg 7%
    14:00 +31°C° 0 mm 2 mps 757 mmHg 8%
    15:00 +31°C° 0 mm 2 mps 757 mmHg 8%
    16:00 +30°C° 0 mm 3 mps 756 mmHg 8%
    17:00 +29°C° 0 mm 3 mps 757 mmHg 11%
    18:00 +28°C° 0 mm 3 mps 757 mmHg 14%
    19:00 +26°C° 0 mm 3 mps 758 mmHg 17%
    20:00 +26°C° 0 mm 3 mps 758 mmHg 17%
    21:00 +25°C° 0 mm 2 mps 758 mmHg 18%
    22:00 +25°C° 0 mm 2 mps 758 mmHg 18%
    23:00 +24°C° 0 mm 2 mps 758 mmHg 19%

    24 November, Friday

    Time Temperature Precipitation Wind Pressure Humidity
    00:00 +24°C° 0 mm 2 mps 758 mmHg 19%
    01:00 +24°C° 0 mm 2 mps 757 mmHg 19%
    02:00 +23°C° 0 mm 2 mps 757 mmHg 18%
    03:00 +23°C° 0 mm 2 mps 757 mmHg 17%
    04:00 +23°C° 0 mm 2 mps 757 mmHg 17%
    05:00 +23°C° 0 mm 2 mps 758 mmHg 15%
    06:00 +24°C° 0 mm 2 mps 758 mmHg 14%
    07:00 +24°C° 0 mm 2 mps 759 mmHg 13%
    08:00 +26°C° 0 mm 2 mps 759 mmHg 11%
    09:00 +28°C° 0 mm 2 mps 759 mmHg 9%
    10:00 +30°C° 0 mm 2 mps 760 mmHg 8%
    11:00 +30°C° 0 mm 1 mps 759 mmHg 7%
    12:00 +31°C° 0 mm 1 mps 758 mmHg 7%
    13:00 +32°C° 0 mm 1 mps 758 mmHg 7%
    14:00 +32°C° 0 mm 2 mps 758 mmHg 8%
    15:00 +31°C° 0 mm 2 mps 758 mmHg 8%
    16:00 +31°C° 0 mm 3 mps 757 mmHg 9%
    17:00 +30°C° 0 mm 3 mps 758 mmHg 12%
    18:00 +28°C° 0 mm 3 mps 758 mmHg 15%
    19:00 +27°C° 0 mm 3 mps 759 mmHg 18%
    20:00 +26°C° 0 mm 2 mps 759 mmHg 19%
    21:00 +26°C° 0 mm 2 mps 759 mmHg 20%
    22:00 +25°C° 0 mm 2 mps 759 mmHg 21%
    23:00 +25°C° 0 mm 2 mps 758 mmHg 22%

    25 November, Saturday

    Time Temperature Precipitation Wind Pressure Humidity
    00:00 +25°C° 0 mm 2 mps 758 mmHg 22%
    01:00 +24°C° 0 mm 2 mps 758 mmHg 23%
    02:00 +24°C° 0 mm 2 mps 758 mmHg 24%
    03:00 +23°C° 0 mm 2 mps 758 mmHg 25%
    04:00 +23°C° 0 mm 2 mps 758 mmHg 26%
    05:00 +23°C° 0 mm 2 mps 758 mmHg 26%
    06:00 +24°C° 0 mm 2 mps 759 mmHg 25%
    07:00 +24°C° 0 mm 1 mps 760 mmHg 25%
    08:00 +26°C° 0 mm 1 mps 760 mmHg 22%
    09:00 +28°C° 0 mm 2 mps 760 mmHg 18%
    10:00 +30°C° 0 mm 2 mps 760 mmHg 15%
    11:00 +31°C° 0 mm 2 mps 759 mmHg 15%
    12:00 +33°C° 0 mm 3 mps 759 mmHg 14%
    13:00 +33°C° 0 mm 3 mps 758 mmHg 14%
    14:00 +33°C° 0 mm 3 mps 758 mmHg 16%
    15:00 +31°C° 0 mm 3 mps 758 mmHg 18%
    16:00 +32°C° 0 mm 4 mps 758 mmHg 21%
    17:00 +29°C° 0 mm 3 mps 758 mmHg 26%
    18:00 +28°C° 0 mm 3 mps 759 mmHg 32%
    19:00 +27°C° 0 mm 3 mps 759 mmHg 37%
    20:00 +27°C° 0 mm 3 mps 759 mmHg 41%
    21:00 +26°C° 0 mm 3 mps 759 mmHg 45%
    22:00 +26°C° 0 mm 3 mps 759 mmHg 49%
    23:00 +26°C° 0 mm 3 mps 759 mmHg 54%

    26 November, Sunday

    Time Temperature Precipitation Wind Pressure Humidity
    00:00 +25°C° 0 mm 3 mps 759 mmHg 58%
    01:00 +25°C° 0 mm 3 mps 758 mmHg 62%
    02:00 +25°C° 0 mm 3 mps 759 mmHg 64%
    03:00 +24°C° 0 mm 2 mps 759 mmHg 66%
    04:00 +24°C° 0 mm 2 mps 759 mmHg 68%
    05:00 +24°C° 0 mm 2 mps 759 mmHg 64%
    06:00 +25°C° 0 mm 1 mps 760 mmHg 60%
    07:00 +25°C° 0 mm 1 mps 760 mmHg 55%
    08:00 +27°C° 0 mm 1 mps 760 mmHg 45%
    09:00 +29°C° 0 mm 1 mps 760 mmHg 35%
    10:00 +31°C° 0 mm 1 mps 760 mmHg 25%
    11:00 +31°C° 0 mm 1 mps 760 mmHg 22%
    12:00 +32°C° 0 mm 1 mps 759 mmHg 19%
    13:00 +33°C° 0 mm 1 mps 758 mmHg 16%
    14:00 +34°C° 0 mm 2 mps 758 mmHg 18%
    15:00 +32°C° 0 mm 2 mps 758 mmHg 20%
    16:00 +33°C° 0 mm 3 mps 758 mmHg 22%
    17:00 +31°C° 0 mm 3 mps 758 mmHg 27%
    18:00 +30°C° 0 mm 2 mps 759 mmHg 31%
    19:00 +28°C° 0 mm 2 mps 759 mmHg 36%
    20:00 +28°C° 0 mm 2 mps 759 mmHg 36%
    21:00 +27°C° 0 mm 2 mps 759 mmHg 36%
    22:00 +26°C° 0 mm 2 mps 759 mmHg 36%
    23:00 +26°C° 0 mm 2 mps 759 mmHg 36%
    Show more